Date String (YYYY-MM-DD hh:mm:ss) UTC,Instrument flags,absolute air pressure of the measurement (hPa),sample flow rate (lpm),inlet stack bypass flow (lpm),air temperature of the measurement (°C),ambient temperature measured by the external sensor (°C),aerosol sample conditioner tube jacket temperature (°C),OPC LED temperature (°C),internal box temperature (°C),relative humidity of the measurement (%),span deviation,mass concentration of particles derived from Lorenz-Mie calculation of OPC scattering (μg/m³),mass concentration of particles derived from Lorenz-Mie calculation of OPC scattering (μg/m³),mass concentration of particles derived from Lorenz-Mie calculation of OPC scattering (μg/m³)
DateTimeUTC,F1_M11,P_M11,Q1_M11,Q2_M11,T1_M11,T2_M11,T3_M11,T4_M11,T5_M11,U1_M11,ZSPAN_M11,X0_M11,X2_M11,X1_M11
2024-01-22 02:00:00,SystemResetWarning,0822.3,5.01,000.00,022.9,022.0,000.0,031.2,024.2,14.5,0000.0,0007.63,0003.72,0003.51
2024-01-22 02:01:00,SystemResetWarning,0822.3,5.01,000.00,022.9,021.9,000.0,031.2,024.2,14.5,0000.0,0007.09,0003.73,0003.50
2024-01-22 02:02:00,SystemResetWarning,0822.3,5.00,000.00,022.9,021.9,000.0,031.2,024.2,14.5,0000.0,0006.61,0003.72,0003.49
2024-01-22 02:03:00,SystemResetWarning,0822.4,4.99,000.00,022.9,021.9,000.0,031.2,024.2,14.5,0000.0,0006.54,0003.71,0003.48
2024-01-22 02:04:00,SystemResetWarning,0822.4,5.00,000.00,022.9,021.9,000.0,031.2,024.2,14.5,0000.0,0006.62,0003.74,0003.47
2024-01-22 02:05:00,SystemResetWarning,0822.4,5.00,000.00,022.9,021.9,000.0,031.2,024.2,14.5,0000.0,0006.62,0003.72,0003.45
2024-01-22 02:06:00,SystemResetWarning,0822.4,5.00,000.00,022.9,021.9,000.0,031.2,024.2,14.5,-000.3,0006.83,0003.78,0003.48
2024-01-22 02:07:00,SystemResetWarning,0822.4,5.00,000.00,022.9,021.9,000.0,031.2,024.2,14.5,-000.5,0007.19,0003.86,0003.52
2024-01-22 02:08:00,SystemResetWarning,0822.4,5.00,000.00,022.9,021.9,000.0,031.2,024.2,14.5,0000.0,0007.31,0003.89,0003.54
2024-01-22 02:09:00,SystemResetWarning,0822.4,5.00,000.00,022.9,021.9,000.0,031.2,024.2,14.5,0000.7,0008.03,0003.89,0003.55
2024-01-22 02:10:00,SystemResetWarning,0822.3,5.00,000.00,022.9,021.9,000.0,031.2,024.2,14.6,0001.6,0007.62,0003.89,0003.58
2024-01-22 02:11:00,SystemResetWarning,0822.4,5.01,000.00,022.8,021.9,000.0,031.2,024.2,14.6,0002.6,0007.60,0003.92,0003.61
2024-01-22 02:12:00,SystemResetWarning,0822.4,5.00,000.00,022.8,021.9,000.0,031.2,024.2,14.6,0002.5,0007.61,0003.95,0003.65
2024-01-22 02:13:00,SystemResetWarning,0822.4,4.99,000.00,022.8,021.9,000.0,031.2,024.2,14.7,0002.7,0007.56,0004.01,0003.68
2024-01-22 02:14:00,SystemResetWarning,0822.4,4.99,000.00,022.8,021.9,000.0,031.2,024.2,14.7,0002.7,0007.61,0004.06,0003.71
2024-01-22 02:15:00,SystemResetWarning,0822.4,5.00,000.00,022.8,021.9,000.0,031.2,024.2,14.7,0003.2,0008.03,0004.08,0003.74
2024-01-22 02:16:00,SystemResetWarning,0822.4,5.00,000.00,022.8,021.9,000.0,031.2,024.2,14.7,0003.8,0008.83,0004.11,0003.78
2024-01-22 02:17:00,SystemResetWarning,0822.4,5.02,000.00,022.8,021.9,000.0,031.2,024.2,14.7,0003.8,0008.87,0004.10,0003.79
2024-01-22 02:18:00,SystemResetWarning,0822.4,4.99,000.00,022.8,021.9,000.0,031.2,024.2,14.7,0004.1,0008.79,0004.08,0003.79
2024-01-22 02:19:00,SystemResetWarning,0822.4,4.99,000.00,022.8,021.9,000.0,031.2,024.2,14.7,0004.7,0008.76,0004.08,0003.80
2024-01-22 02:20:00,SystemResetWarning,0822.4,5.01,000.00,022.8,021.9,000.0,031.2,024.2,14.7,0005.0,0008.14,0004.12,0003.83
2024-01-22 02:21:00,SystemResetWarning,0822.4,5.00,000.00,022.8,021.9,000.0,031.2,024.2,14.7,0005.0,0008.29,0004.18,0003.84
2024-01-22 02:22:00,SystemResetWarning,0822.4,5.01,000.00,022.8,021.9,000.0,031.2,024.2,14.7,0005.0,0008.38,0004.20,0003.85
2024-01-22 02:23:00,SystemResetWarning,0822.4,5.00,000.00,022.8,021.9,000.0,031.2,024.1,14.7,0005.3,0008.32,0004.16,0003.85
2024-01-22 02:24:00,SystemResetWarning,0822.4,5.00,000.00,022.8,021.9,000.0,031.2,024.2,14.8,0005.3,0008.35,0004.13,0003.83
2024-01-22 02:25:00,SystemResetWarning,0822.4,5.00,000.00,022.8,021.9,000.0,031.2,024.2,14.8,0005.5,0008.33,0004.08,0003.81
2024-01-22 02:26:00,SystemResetWarning,0822.4,4.99,000.00,022.8,021.9,000.0,031.2,024.2,14.8,0005.8,0008.10,0004.06,0003.80
2024-01-22 02:27:00,SystemResetWarning,0822.4,4.99,000.00,022.8,021.9,000.0,031.2,024.1,14.8,0005.8,0007.20,0004.06,0003.80
2024-01-22 02:28:00,SystemResetWarning,0822.4,5.00,000.00,022.8,021.9,000.0,031.2,024.1,14.8,0005.9,0007.13,0004.06,0003.80
2024-01-22 02:29:00,SystemResetWarning,0822.4,5.01,000.00,022.8,021.9,000.0,031.1,024.1,14.8,0005.8,0007.03,0004.04,0003.79
2024-01-22 02:30:00,SystemResetWarning,0822.4,5.01,000.00,022.8,021.9,000.0,031.1,024.1,14.8,0005.9,0007.02,0004.04,0003.80
2024-01-22 02:31:00,SystemResetWarning,0822.4,5.00,000.00,022.8,021.9,000.0,031.1,024.1,14.8,0005.6,0006.98,0004.03,0003.79
2024-01-22 02:32:00,SystemResetWarning,0822.4,4.99,000.00,022.8,021.9,000.0,031.1,024.1,14.8,0005.5,0006.81,0004.01,0003.79
2024-01-22 02:33:00,SystemResetWarning,0822.4,4.99,000.00,022.8,021.9,000.0,031.1,024.1,14.7,0005.5,0006.82,0004.02,0003.81
2024-01-22 02:34:00,SystemResetWarning,0822.4,4.99,000.00,022.8,021.8,000.0,031.1,024.1,14.7,0005.1,0007.01,0004.04,0003.82
2024-01-22 02:35:00,SystemResetWarning,0822.4,5.01,000.00,022.8,021.8,000.0,031.1,024.1,14.6,0004.7,0007.13,0004.06,0003.84
2024-01-22 02:36:00,SystemResetWarning,0822.4,5.01,000.00,022.8,021.8,000.0,031.1,024.1,14.6,0004.5,0007.26,0004.12,0003.87
2024-01-22 02:37:00,SystemResetWarning,0822.4,5.00,000.00,022.7,021.8,000.0,031.1,024.1,14.7,0004.3,0007.27,0004.14,0003.89
2024-01-22 02:38:00,SystemResetWarning,0822.4,5.00,000.00,022.7,021.8,000.0,031.1,024.1,14.7,0003.7,0007.26,0004.16,0003.92
2024-01-22 02:39:00,SystemResetWarning,0822.4,5.00,000.00,022.7,021.8,000.0,031.1,024.1,14.7,0003.4,0007.27,0004.17,0003.92
2024-01-22 02:40:00,SystemResetWarning,0822.4,4.99,000.00,022.7,021.8,000.0,031.1,024.1,14.6,0003.4,0007.23,0004.17,0003.93
2024-01-22 02:41:00,SystemResetWarning,0822.4,5.00,000.00,022.7,021.8,000.0,031.1,024.1,14.6,0003.0,0007.29,0004.18,0003.92
2024-01-22 02:42:00,SystemResetWarning,0822.4,5.00,000.00,022.7,021.8,000.0,031.1,024.1,14.6,0002.7,0007.34,0004.19,0003.91
2024-01-22 02:43:00,SystemResetWarning,0822.4,5.00,000.00,022.7,021.8,000.0,031.1,024.1,14.6,0002.7,0007.35,0004.17,0003.91
2024-01-22 02:44:00,SystemResetWarning,0822.4,5.00,000.00,022.7,021.8,000.0,031.1,024.1,14.7,0002.6,0007.28,0004.15,0003.89
2024-01-22 02:45:00,SystemResetWarning,0822.4,5.00,000.00,022.7,021.8,000.0,031.1,024.1,14.6,0002.6,0007.14,0004.14,0003.88
2024-01-22 02:46:00,SystemResetWarning,0822.4,5.00,000.00,022.7,021.8,000.0,031.1,024.1,14.6,0002.9,0007.24,0004.12,0003.88
2024-01-22 02:47:00,SystemResetWarning,0822.4,5.01,000.00,022.7,021.8,000.0,031.1,024.1,14.6,0002.9,0008.02,0004.11,0003.86
2024-01-22 02:48:00,SystemResetWarning,0822.4,5.00,000.00,022.7,021.8,000.0,031.1,024.1,14.6,0003.0,0008.09,0004.10,0003.85
2024-01-22 02:49:00,SystemResetWarning,0822.5,5.00,000.00,022.7,021.8,000.0,031.1,024.1,14.6,0003.5,0008.19,0004.10,0003.83
2024-01-22 02:50:00,SystemResetWarning,0822.4,5.01,000.00,022.7,021.8,000.0,031.1,024.1,14.6,0003.9,0008.24,0004.09,0003.82
2024-01-22 02:51:00,SystemResetWarning,0822.4,5.01,000.00,022.7,021.8,000.0,031.1,024.1,14.6,0004.0,0008.43,0004.09,0003.81
2024-01-22 02:52:00,SystemResetWarning,0822.4,5.00,000.00,022.7,021.8,000.0,031.1,024.1,14.6,0004.0,0008.93,0004.09,0003.80
2024-01-22 02:53:00,SystemResetWarning,0822.4,4.99,000.00,022.7,021.8,000.0,031.1,024.1,14.7,0004.8,0008.94,0004.09,0003.79
2024-01-22 02:54:00,SystemResetWarning,0822.4,5.00,000.00,022.8,021.8,000.0,031.1,024.1,14.6,0004.9,0008.88,0004.06,0003.77
2024-01-22 02:55:00,SystemResetWarning,0822.4,5.00,000.00,022.8,021.8,000.0,031.1,024.1,14.6,0005.2,0008.85,0004.03,0003.74
2024-01-22 02:56:00,SystemResetWarning,0822.4,5.00,000.00,022.8,021.8,000.0,031.1,024.1,14.6,0004.9,0009.45,0003.98,0003.69
2024-01-22 02:57:00,SystemResetWarning,0822.4,5.00,000.00,022.7,021.8,000.0,031.1,024.1,14.7,0005.0,0009.93,0003.94,0003.66
2024-01-22 02:58:00,SystemResetWarning,0822.4,5.00,000.00,022.7,021.8,000.0,031.1,024.1,14.7,0005.3,0009.23,0003.92,0003.63
2024-01-22 02:59:00,SystemResetWarning,0822.4,5.00,000.00,022.7,021.8,000.0,031.1,024.1,14.7,0005.4,0009.51,0003.90,0003.59
